Miscellaneous Local Product
Issued by NWS Hastings, NE

Home | Current Version | Previous Version | Graphics & Text | Print | Product List | Glossary Off
Versions: 1 2 3 4 5 6 7 8 9 10 11 12 13 14 15 16 17 18 19 20 21 22 23 24 25 26 27 28 29 30 31 32 33 34 35 36 37 38 39 40 41 42 43 44 45 46 47 48 49 50

000
AXUS43 KGID 302102
MISGRI

GID CWA HOURLY WEATHER ROUNDUP
NATIONAL WEATHER SERVICE HASTINGS NE
400 PM CDT SAT APR 30 2016

NOTE: "FAIR" INDICATES FEW OR NO CLOUDS BELOW 12,000 FEET WITH NO
SIGNIFICANT WEATHER AND/OR OBSTRUCTIONS TO VISIBILITY.

...SOUTH CENTRAL NEBRASKA...

CITY           SKY/WX    TMP DP  RH WIND       PRES   REMARKS
GRAND ISLAND   LGT RAIN  46  44  93 N12       29.79R FOG
HASTINGS       CLOUDY    47  43  86 N10       29.77S
KEARNEY        CLOUDY    45  41  87 N14       29.79R
ORD            LGT RAIN  43  41  93 NE15      29.81R FOG
YORK           LGT RAIN  48  46  93 N9        29.77R
AURORA         CLOUDY    47  46  97 NE6       29.77S FOG
LEXINGTON      LGT RAIN  42  37  85 N17       29.83R
HOLDREGE       LGT RAIN  45  41  87 N12       29.79R
HEBRON         CLOUDY    50  48  93 NW9       29.76S FOG

...NEBRASKA PANHANDLE...

CITY           SKY/WX    TMP DP  RH WIND       PRES   REMARKS
CHADRON        LGT RAIN  44  33  65 N24G35    30.04R
ALLIANCE       LGT SNOW  33  32  96 N18       29.98R VSB 3/4 WCI  22
SCOTTSBLUFF    LGT RAIN  38 N/A N/A N20G25    30.03R WCI  28
SIDNEY         SNOW      34  32  92 N18       29.97R VSB 1/2 WCI  23

...WESTERN AND NORTH CENTRAL NEBRASKA...

CITY           SKY/WX    TMP DP  RH WIND       PRES   REMARKS
VALENTINE      LGT RAIN  40  36  86 NE23G31   29.94R WCI  30
AINSWORTH      LGT RAIN  35  34  97 N15       29.92R WCI  25
ONEILL         CLOUDY    43  41  94 NE16G22   29.86R FOG
BROKEN BOW     LGT RAIN  40  38  93 N20       29.82S WCI  30
IMPERIAL       LGT SNOW  35  33  92 N17       29.89R FOG     WCI  25
NORTH PLATTE   LGT RAIN  37  35  92 N17       29.86R WCI  27
MCCOOK         CLOUDY    41  36  82 N14       29.84R

...EASTERN NEBRASKA...

CITY           SKY/WX    TMP DP  RH WIND       PRES   REMARKS
NORFOLK        LGT RAIN  45  43  93 E14       29.80R FOG
SO SIOUX CITY  LGT RAIN  49  44  83 E22G30    29.83R
TEKAMAH        CLOUDY    49  46  90 E12       29.79R
COLUMBUS       CLOUDY    46  39  76 NE12      29.79R
ALBION         LGT RAIN  44  43  95 NE10      29.80S
OMAHA EPPLEY   CLOUDY    50  48  93 E9        29.77R FOG
OFFUTT AFB     LGT RAIN  50  50 100 E8        29.75R FOG
MILLARD        CLOUDY    50  48  93 E3        29.76R FOG
LINCOLN        LGT RAIN  52  50  93 NE7       29.75S FOG
NEBRASKA CITY  CLOUDY    53  53 100 NE7       29.73R
BEATRICE       CLOUDY    54  51  89 W10       29.74S
FALLS CITY     PTSUNNY   63  52  67 W12       29.73R

...NORTHERN KANSAS...

CITY           SKY/WX    TMP DP  RH WIND       PRES   REMARKS
GOODLAND       CLOUDY    41  34  76 NW18      29.86R
HILL CITY      CLOUDY    48  38  68 NW12      29.83R
NORTON         CLOUDY    43  36  75 NW10      29.82R
PHILLIPSBURG   CLOUDY    48  43  81 W14       29.81S
SMITH CENTER   CLOUDY    48  43  81 NW10      29.79S
BELOIT         CLOUDY    52  43  71 W12G17    29.78R
HAYS           CLOUDY    52  36  54 W14       29.82R
RUSSELL        CLOUDY    52  42  69 W20       29.79R
CONCORDIA      CLOUDY    54  44  69 W13       29.76S
SALINA         CLOUDY    58  45  62 W16       29.78R
TOPEKA         MOSUNNY   66  47  50 W12G21    29.73S



USA.gov is the U.S. government's official web portal to all federal, state and local government web resources and services.